CSR26 EDDH-EDDW

Flight info

Callsign CSR26
Flight time 0h 33m
Altitude 8000
Route WSN1M/09 WSN Y850 MUBZI M105 RIBSO DCT EDDH DCT WSN L23 GIBMA DCT EDDW
Aircraft DA42/L-SDFGRY/C

Departure

Time 2026-05-06 17:43
Airport Hamburg Helmut Schmidt Airport (EDDH)

Arrival

Time 2026-05-06 18:17
Airport Bremen Airport (EDDW)
Time Latitude Longitude Altitude Speed Heading
2026-05-06 17:43 53.62905 10.10774 4994 ft 165 kts 174°
2026-05-06 17:43 53.61756 10.10834 4994 ft 166 kts 174°
2026-05-06 17:44 53.60601 10.10900 4994 ft 166 kts 174°
2026-05-06 17:44 53.59445 10.10967 4993 ft 166 kts 174°
2026-05-06 17:44 53.58291 10.11025 4993 ft 166 kts 174°
2026-05-06 17:44 53.57137 10.11083 4994 ft 166 kts 174°
2026-05-06 17:45 53.55973 10.11147 4990 ft 168 kts 174°
2026-05-06 17:45 53.54807 10.11208 4992 ft 168 kts 174°
2026-05-06 17:45 53.53638 10.11264 4993 ft 168 kts 174°
2026-05-06 17:45 53.52470 10.11323 4991 ft 168 kts 174°
2026-05-06 17:46 53.51301 10.11386 4991 ft 168 kts 174°
2026-05-06 17:46 53.50129 10.11448 4989 ft 169 kts 174°
2026-05-06 17:46 53.48958 10.11506 4988 ft 169 kts 174°
2026-05-06 17:46 53.47783 10.11562 4987 ft 168 kts 174°
2026-05-06 17:47 53.46631 10.11502 4973 ft 171 kts 191°
2026-05-06 17:47 53.45638 10.10369 4974 ft 175 kts 233°
2026-05-06 17:47 53.45034 10.08615 4984 ft 174 kts 243°
2026-05-06 17:47 53.44497 10.06828 4983 ft 174 kts 244°
2026-05-06 17:48 53.43952 10.04988 4985 ft 174 kts 244°
2026-05-06 17:48 53.43412 10.03173 4979 ft 174 kts 244°
2026-05-06 17:48 53.42880 10.01376 4980 ft 175 kts 244°
2026-05-06 17:48 53.42341 9.99544 4978 ft 175 kts 244°
2026-05-06 17:49 53.41800 9.97717 4967 ft 175 kts 244°
2026-05-06 17:49 53.41258 9.95887 4968 ft 175 kts 244°
2026-05-06 17:49 53.40716 9.94060 4971 ft 175 kts 244°
2026-05-06 17:49 53.40175 9.92237 4980 ft 175 kts 244°
2026-05-06 17:50 53.39628 9.90403 4972 ft 175 kts 244°
2026-05-06 17:50 53.39088 9.88581 4977 ft 175 kts 244°
2026-05-06 17:50 53.38547 9.86763 4973 ft 175 kts 244°
2026-05-06 17:50 53.38005 9.84940 4974 ft 174 kts 244°
2026-05-06 17:51 53.37465 9.83127 4971 ft 174 kts 244°
2026-05-06 17:51 53.36924 9.81312 4973 ft 174 kts 244°
2026-05-06 17:51 53.36386 9.79501 4981 ft 174 kts 244°
2026-05-06 17:51 53.35842 9.77685 4972 ft 174 kts 244°
2026-05-06 17:52 53.35300 9.75877 4986 ft 174 kts 244°
2026-05-06 17:52 53.34761 9.74064 4964 ft 174 kts 244°
2026-05-06 17:52 53.34219 9.72245 4974 ft 174 kts 244°
2026-05-06 17:52 53.33685 9.70422 4970 ft 175 kts 244°
2026-05-06 17:53 53.33150 9.68588 4977 ft 176 kts 244°
2026-05-06 17:53 53.32617 9.66760 4968 ft 175 kts 244°
2026-05-06 17:53 53.32087 9.64945 4968 ft 173 kts 244°
2026-05-06 17:53 53.31561 9.63145 4966 ft 171 kts 244°
2026-05-06 17:54 53.31038 9.61357 5007 ft 169 kts 244°
2026-05-06 17:54 53.30551 9.59703 5426 ft 147 kts 244°
2026-05-06 17:54 53.30132 9.58297 5978 ft 122 kts 244°
2026-05-06 17:54 53.29764 9.57081 6378 ft 116 kts 245°
2026-05-06 17:55 53.29693 9.55785 6686 ft 112 kts 291°
2026-05-06 17:55 53.29918 9.54537 7005 ft 114 kts 286°
2026-05-06 17:55 53.30062 9.53222 7322 ft 115 kts 282°
2026-05-06 17:55 53.30180 9.51902 7658 ft 115 kts 282°
2026-05-06 17:56 53.30290 9.50547 7885 ft 125 kts 282°
2026-05-06 17:56 53.30412 9.48987 7880 ft 144 kts 281°
2026-05-06 17:56 53.30541 9.47247 7885 ft 157 kts 280°
2026-05-06 17:56 53.30674 9.45400 7887 ft 163 kts 278°
2026-05-06 17:57 53.30810 9.43490 7886 ft 167 kts 279°
2026-05-06 17:57 53.30949 9.41546 7883 ft 169 kts 279°
2026-05-06 17:57 53.31088 9.39606 7885 ft 170 kts 278°
2026-05-06 17:57 53.31228 9.37646 7884 ft 171 kts 279°
2026-05-06 17:58 53.31371 9.35666 7886 ft 172 kts 279°
2026-05-06 17:58 53.31512 9.33684 7886 ft 172 kts 279°
2026-05-06 17:58 53.31652 9.31707 7887 ft 172 kts 279°
2026-05-06 17:58 53.31794 9.29717 7887 ft 173 kts 279°
2026-05-06 17:59 53.31924 9.27712 7884 ft 175 kts 273°
2026-05-06 17:59 53.31559 9.25742 7765 ft 183 kts 240°
2026-05-06 17:59 53.30845 9.23961 7641 ft 186 kts 235°
2026-05-06 17:59 53.30099 9.22208 7516 ft 188 kts 235°
2026-05-06 18:00 53.29326 9.20401 7390 ft 189 kts 234°
2026-05-06 18:00 53.28570 9.18631 7265 ft 190 kts 234°
2026-05-06 18:00 53.27794 9.16811 7138 ft 190 kts 234°
2026-05-06 18:00 53.27031 9.15015 7013 ft 190 kts 234°
2026-05-06 18:01 53.26280 9.13241 6891 ft 189 kts 234°
2026-05-06 18:01 53.25513 9.11421 6765 ft 189 kts 234°
2026-05-06 18:01 53.24758 9.09624 6642 ft 189 kts 234°
2026-05-06 18:01 53.24014 9.07852 6522 ft 189 kts 234°
2026-05-06 18:02 53.23251 9.06032 6396 ft 189 kts 234°
2026-05-06 18:02 53.22500 9.04231 6273 ft 189 kts 234°
2026-05-06 18:02 53.21750 9.02469 6144 ft 189 kts 233°
2026-05-06 18:02 53.20978 9.00664 6013 ft 189 kts 233°
2026-05-06 18:03 53.20227 8.98909 5883 ft 188 kts 233°
2026-05-06 18:03 53.19468 8.97132 5753 ft 188 kts 234°
2026-05-06 18:03 53.18706 8.95354 5622 ft 188 kts 233°
2026-05-06 18:03 53.17943 8.93573 5492 ft 188 kts 233°
2026-05-06 18:04 53.17184 8.91799 5364 ft 188 kts 233°
2026-05-06 18:04 53.16426 8.90028 5234 ft 188 kts 233°
2026-05-06 18:04 53.15664 8.88251 5108 ft 188 kts 233°
2026-05-06 18:04 53.14903 8.86472 4998 ft 187 kts 233°
2026-05-06 18:05 53.14161 8.84732 5005 ft 182 kts 233°
2026-05-06 18:05 53.13434 8.83030 5001 ft 179 kts 233°
2026-05-06 18:05 53.12717 8.81354 5000 ft 177 kts 233°
2026-05-06 18:05 53.12001 8.79685 5001 ft 176 kts 233°
2026-05-06 18:06 53.11289 8.78030 5000 ft 176 kts 233°
2026-05-06 18:06 53.10579 8.76379 4999 ft 175 kts 233°
2026-05-06 18:06 53.10110 8.75288 5003 ft 175 kts 233°
2026-05-06 18:06 53.09633 8.73449 4997 ft 175 kts 260°
2026-05-06 18:07 53.09438 8.71460 5002 ft 174 kts 263°
2026-05-06 18:07 53.09267 8.69474 4998 ft 174 kts 263°
2026-05-06 18:07 53.09098 8.67486 4986 ft 174 kts 264°
2026-05-06 18:07 53.08922 8.65489 4988 ft 174 kts 263°
2026-05-06 18:08 53.08742 8.63491 4929 ft 178 kts 263°
2026-05-06 18:08 53.08557 8.61420 4748 ft 183 kts 264°
2026-05-06 18:08 53.08366 8.59327 4487 ft 182 kts 264°
2026-05-06 18:08 53.08173 8.57256 4226 ft 180 kts 263°
2026-05-06 18:09 53.07979 8.55227 3966 ft 175 kts 263°
2026-05-06 18:09 53.07785 8.53259 3707 ft 169 kts 264°
2026-05-06 18:09 53.07590 8.51359 3454 ft 168 kts 263°
2026-05-06 18:09 53.07389 8.49407 3197 ft 172 kts 263°
2026-05-06 18:10 53.07185 8.47474 2997 ft 165 kts 263°
2026-05-06 18:10 53.06986 8.45631 3002 ft 160 kts 263°
2026-05-06 18:10 53.06790 8.43822 3002 ft 157 kts 263°
2026-05-06 18:10 53.06594 8.42040 3005 ft 156 kts 263°
2026-05-06 18:11 53.06074 8.40472 3000 ft 159 kts 220°
2026-05-06 18:11 53.05072 8.39840 3004 ft 154 kts 174°
2026-05-06 18:11 53.04131 8.40441 3013 ft 145 kts 129°
2026-05-06 18:11 53.03740 8.41921 3011 ft 142 kts 85°
2026-05-06 18:12 53.03841 8.43576 3009 ft 146 kts 79°
2026-05-06 18:12 53.03943 8.45275 3005 ft 150 kts 82°
2026-05-06 18:12 53.04007 8.47016 3004 ft 152 kts 83°
2026-05-06 18:12 53.04059 8.48774 3003 ft 153 kts 83°
2026-05-06 18:13 53.04096 8.50542 2998 ft 153 kts 84°
2026-05-06 18:13 53.04132 8.52309 2999 ft 153 kts 84°
2026-05-06 18:13 53.04170 8.54076 2971 ft 155 kts 84°
2026-05-06 18:13 53.04209 8.55902 2777 ft 160 kts 84°
2026-05-06 18:14 53.04249 8.57782 2557 ft 164 kts 84°
2026-05-06 18:14 53.04289 8.59686 2331 ft 166 kts 84°
2026-05-06 18:14 53.04330 8.61605 2101 ft 166 kts 84°
2026-05-06 18:14 53.04369 8.63530 1873 ft 167 kts 84°
2026-05-06 18:15 53.04409 8.65455 1644 ft 167 kts 84°
2026-05-06 18:15 53.04450 8.67376 1423 ft 166 kts 84°
2026-05-06 18:15 53.04489 8.69274 1195 ft 161 kts 84°
2026-05-06 18:15 53.04510 8.71017 879 ft 145 kts 85°
2026-05-06 18:16 53.04541 8.72683 608 ft 144 kts 84°
2026-05-06 18:16 53.04586 8.74205 393 ft 120 kts 85°
2026-05-06 18:16 53.04612 8.75488 225 ft 100 kts 86°
2026-05-06 18:16 53.04637 8.76574 110 ft 86 kts 85°
2026-05-06 18:17 53.04660 8.77543 18 ft 81 kts 87°
2026-05-06 18:17 53.04677 8.78255 14 ft 45 kts 87°
2026-05-06 18:17 53.04691 8.78599 15 ft 18 kts 58°
2026-05-06 18:17 53.04776 8.78663 13 ft 12 kts 358°
2026-05-06 18:18 53.04828 8.78653 13 ft 12 kts 325°
2026-05-06 18:18 53.04848 8.78460 13 ft 23 kts 279°
2026-05-06 18:18 53.04933 8.78257 13 ft 19 kts 311°
2026-05-06 18:18 53.04977 8.78192 13 ft 0 kts 25°